• In Deutschland
  • Länderverzeichnis
  • Für 7 Tage
  • Wassertemperatur
  • Satellitenkarten
  • Wetterkarte
  • Widgets
  • user-avatar
    Anmelden

    Stündliche Wetter Ganja

    Heute, 28 Juni, Mittwoch

    Zeit Temperatur Niederschläge Wind Luftdruck Luftfeuchtigkeit
    00:00 +23°C° 0 mm 1 m/S 724 mmHg 78%
    01:00 +22°C° 0 mm 1 m/S 723 mmHg 81%
    02:00 +22°C° 0 mm 1 m/S 723 mmHg 83%
    03:00 +21°C° 0 mm 1 m/S 723 mmHg 84%
    04:00 +21°C° 0 mm 0 m/S 723 mmHg 82%
    05:00 +22°C° 0 mm 0 m/S 723 mmHg 80%
    06:00 +23°C° 0 mm 0 m/S 724 mmHg 78%
    07:00 +26°C° 0 mm 1 m/S 724 mmHg 72%
    08:00 +28°C° 0 mm 1 m/S 723 mmHg 65%
    09:00 +30°C° 0 mm 2 m/S 723 mmHg 58%
    10:00 +31°C° 0 mm 2 m/S 723 mmHg 54%
    11:00 +33°C° 0 mm 3 m/S 723 mmHg 50%
    12:00 +34°C° 0 mm 3 m/S 722 mmHg 46%
    13:00 +35°C° 0,1 mm 3 m/S 722 mmHg 45%
    14:00 +35°C° 0,1 mm 3 m/S 722 mmHg 44%
    15:00 +36°C° 0,1 mm 4 m/S 721 mmHg 43%
    16:00 +35°C° 0,1 mm 3 m/S 721 mmHg 45%
    17:00 +35°C° 0,1 mm 3 m/S 721 mmHg 47%
    18:00 +34°C° 0,1 mm 3 m/S 721 mmHg 49%
    19:00 +31°C° 0,1 mm 3 m/S 722 mmHg 53%
    20:00 +29°C° 0,1 mm 3 m/S 722 mmHg 57%
    21:00 +27°C° 0,1 mm 2 m/S 722 mmHg 61%
    22:00 +26°C° 0,1 mm 2 m/S 722 mmHg 63%
    23:00 +25°C° 0,1 mm 2 m/S 722 mmHg 64%

    Morgen, 29 Juni, Donnerstag

    Zeit Temperatur Niederschläge Wind Luftdruck Luftfeuchtigkeit
    00:00 +25°C° 0,1 mm 2 m/S 722 mmHg 65%
    01:00 +24°C° 0 mm 1 m/S 722 mmHg 67%
    02:00 +23°C° 0 mm 1 m/S 722 mmHg 68%
    03:00 +22°C° 0 mm 1 m/S 722 mmHg 69%
    04:00 +24°C° 0 mm 1 m/S 722 mmHg 66%
    05:00 +25°C° 0 mm 1 m/S 723 mmHg 63%
    06:00 +26°C° 0 mm 1 m/S 723 mmHg 60%
    07:00 +28°C° 0 mm 1 m/S 723 mmHg 55%
    08:00 +29°C° 0 mm 1 m/S 723 mmHg 49%
    09:00 +30°C° 0 mm 1 m/S 723 mmHg 44%
    10:00 +31°C° 0 mm 2 m/S 722 mmHg 41%
    11:00 +32°C° 0 mm 2 m/S 722 mmHg 39%
    12:00 +34°C° 0 mm 2 m/S 722 mmHg 36%
    13:00 +35°C° 0 mm 2 m/S 721 mmHg 35%
    14:00 +36°C° 0 mm 2 m/S 721 mmHg 33%
    15:00 +36°C° 0 mm 3 m/S 721 mmHg 32%
    16:00 +35°C° 0 mm 2 m/S 721 mmHg 34%
    17:00 +35°C° 0 mm 2 m/S 721 mmHg 36%
    18:00 +34°C° 0 mm 2 m/S 721 mmHg 38%
    19:00 +31°C° 0 mm 2 m/S 721 mmHg 41%
    20:00 +29°C° 0 mm 2 m/S 722 mmHg 45%
    21:00 +26°C° 0 mm 2 m/S 722 mmHg 49%
    22:00 +26°C° 0 mm 2 m/S 722 mmHg 48%
    23:00 +25°C° 0 mm 2 m/S 722 mmHg 48%

    übermorgen, 30 Juni, Freitag

    Zeit Temperatur Niederschläge Wind Luftdruck Luftfeuchtigkeit
    00:00 +25°C° 0 mm 2 m/S 722 mmHg 47%
    01:00 +24°C° 0 mm 1 m/S 722 mmHg 49%
    02:00 +23°C° 0 mm 1 m/S 722 mmHg 51%
    03:00 +23°C° 0 mm 1 m/S 722 mmHg 53%
    04:00 +24°C° 0 mm 2 m/S 722 mmHg 54%
    05:00 +24°C° 0 mm 2 m/S 722 mmHg 55%
    06:00 +25°C° 0 mm 2 m/S 723 mmHg 56%
    07:00 +27°C° 0 mm 3 m/S 723 mmHg 50%
    08:00 +28°C° 0 mm 3 m/S 723 mmHg 45%
    09:00 +30°C° 0 mm 3 m/S 723 mmHg 40%
    10:00 +31°C° 0 mm 3 m/S 723 mmHg 37%
    11:00 +32°C° 0 mm 2 m/S 723 mmHg 34%
    12:00 +34°C° 0 mm 2 m/S 722 mmHg 30%
    13:00 +35°C° 0 mm 2 m/S 722 mmHg 29%
    14:00 +35°C° 0 mm 2 m/S 722 mmHg 28%
    15:00 +35°C° 0 mm 2 m/S 722 mmHg 27%
    16:00 +35°C° 0 mm 2 m/S 722 mmHg 29%
    17:00 +34°C° 0 mm 2 m/S 722 mmHg 30%
    18:00 +34°C° 0 mm 2 m/S 722 mmHg 32%
    19:00 +31°C° 0 mm 2 m/S 723 mmHg 34%
    20:00 +28°C° 0 mm 3 m/S 723 mmHg 36%
    21:00 +26°C° 0 mm 3 m/S 724 mmHg 37%
    22:00 +25°C° 0 mm 3 m/S 724 mmHg 38%
    23:00 +25°C° 0 mm 3 m/S 724 mmHg 39%

    1 Juli, Samstag

    Zeit Temperatur Niederschläge Wind Luftdruck Luftfeuchtigkeit
    00:00 +24°C° 0 mm 2 m/S 724 mmHg 40%
    01:00 +23°C° 0 mm 2 m/S 724 mmHg 41%
    02:00 +23°C° 0 mm 2 m/S 724 mmHg 42%
    03:00 +23°C° 0 mm 2 m/S 724 mmHg 42%
    04:00 +23°C° 0 mm 2 m/S 725 mmHg 43%
    05:00 +24°C° 0 mm 2 m/S 725 mmHg 43%
    06:00 +24°C° 0 mm 2 m/S 725 mmHg 44%
    07:00 +26°C° 0 mm 2 m/S 725 mmHg 39%
    08:00 +28°C° 0 mm 2 m/S 725 mmHg 34%
    09:00 +30°C° 0 mm 2 m/S 725 mmHg 29%
    10:00 +32°C° 0 mm 2 m/S 725 mmHg 27%
    11:00 +34°C° 0 mm 2 m/S 725 mmHg 25%
    12:00 +35°C° 0 mm 2 m/S 725 mmHg 23%
    13:00 +36°C° 0 mm 3 m/S 725 mmHg 23%
    14:00 +36°C° 0 mm 3 m/S 724 mmHg 22%
    15:00 +37°C° 0 mm 4 m/S 724 mmHg 22%
    16:00 +36°C° 0 mm 4 m/S 724 mmHg 24%
    17:00 +35°C° 0 mm 4 m/S 724 mmHg 26%
    18:00 +35°C° 0 mm 3 m/S 724 mmHg 29%
    19:00 +31°C° 0 mm 3 m/S 724 mmHg 31%
    20:00 +29°C° 0 mm 3 m/S 725 mmHg 32%
    21:00 +27°C° 0 mm 3 m/S 725 mmHg 34%
    22:00 +26°C° 0 mm 3 m/S 725 mmHg 35%
    23:00 +25°C° 0 mm 3 m/S 725 mmHg 35%

    2 Juli, Sonntag

    Zeit Temperatur Niederschläge Wind Luftdruck Luftfeuchtigkeit
    00:00 +25°C° 0 mm 3 m/S 725 mmHg 36%
    01:00 +24°C° 0 mm 2 m/S 725 mmHg 36%
    02:00 +23°C° 0 mm 2 m/S 725 mmHg 37%
    03:00 +23°C° 0 mm 2 m/S 725 mmHg 37%
    04:00 +24°C° 0 mm 2 m/S 725 mmHg 38%
    05:00 +25°C° 0 mm 2 m/S 725 mmHg 39%
    06:00 +25°C° 0 mm 2 m/S 725 mmHg 40%
    07:00 +27°C° 0 mm 1 m/S 725 mmHg 36%
    08:00 +29°C° 0 mm 1 m/S 725 mmHg 32%
    09:00 +31°C° 0 mm 1 m/S 725 mmHg 28%
    10:00 +34°C° 0 mm 2 m/S 724 mmHg 27%
    11:00 +35°C° 0 mm 2 m/S 724 mmHg 26%
    12:00 +36°C° 0 mm 2 m/S 724 mmHg 25%
    13:00 +37°C° 0 mm 3 m/S 723 mmHg 24%
    14:00 +37°C° 0 mm 3 m/S 723 mmHg 24%
    15:00 +38°C° 0 mm 4 m/S 722 mmHg 23%
    16:00 +37°C° 0 mm 4 m/S 722 mmHg 25%
    17:00 +37°C° 0 mm 3 m/S 722 mmHg 28%
    18:00 +36°C° 0 mm 3 m/S 722 mmHg 30%
    19:00 +34°C° 0 mm 3 m/S 722 mmHg 32%
    20:00 +30°C° 0 mm 3 m/S 723 mmHg 35%
    21:00 +28°C° 0 mm 3 m/S 723 mmHg 37%
    22:00 +27°C° 0 mm 3 m/S 723 mmHg 39%
    23:00 +26°C° 0 mm 2 m/S 723 mmHg 41%

    3 Juli, Montag

    Zeit Temperatur Niederschläge Wind Luftdruck Luftfeuchtigkeit
    00:00 +25°C° 0 mm 2 m/S 723 mmHg 43%
    01:00 +25°C° 0 mm 2 m/S 722 mmHg 44%
    02:00 +24°C° 0 mm 2 m/S 722 mmHg 45%
    03:00 +23°C° 0 mm 2 m/S 722 mmHg 46%
    04:00 +24°C° 0 mm 2 m/S 722 mmHg 46%
    05:00 +25°C° 0 mm 2 m/S 722 mmHg 46%
    06:00 +26°C° 0 mm 2 m/S 722 mmHg 46%
    07:00 +28°C° 0 mm 2 m/S 722 mmHg 40%
    08:00 +30°C° 0 mm 2 m/S 721 mmHg 34%
    09:00 +32°C° 0 mm 2 m/S 721 mmHg 29%
    10:00 +34°C° 0 mm 2 m/S 721 mmHg 27%
    11:00 +36°C° 0 mm 2 m/S 720 mmHg 26%
    12:00 +37°C° 0 mm 2 m/S 720 mmHg 25%
    13:00 +37°C° 0 mm 2 m/S 719 mmHg 25%
    14:00 +38°C° 0 mm 2 m/S 719 mmHg 24%
    15:00 +38°C° 0 mm 2 m/S 719 mmHg 24%
    16:00 +38°C° 0 mm 2 m/S 719 mmHg 27%
    17:00 +37°C° 0 mm 2 m/S 719 mmHg 29%
    18:00 +36°C° 0 mm 1 m/S 719 mmHg 32%
    19:00 +33°C° 0 mm 1 m/S 719 mmHg 35%
    20:00 +30°C° 0 mm 2 m/S 719 mmHg 38%
    21:00 +28°C° 0 mm 2 m/S 719 mmHg 41%
    22:00 +27°C° 0 mm 1 m/S 719 mmHg 43%
    23:00 +27°C° 0 mm 1 m/S 719 mmHg 44%
    Mehr zeigen